When you browse on this site, cookies collect data to enhance your experience and personalize the content and advertising you see.
Visit our Privacy Policy to learn more. By continuing to use the site, you agree to this use of cookies and data.
  • In Austria
  • List of Countries
  • For 7 days
  • Water Temperature
  • Weather Map
  • News
  • Weather Widgets
  • user-avatar
    Login

    Hourly Weather Corpus Christi

    Today, 18 October, Friday

    Time Temperature Precipitation Wind Pressure Humidity
    00:00 +20°C° 0 mm 3 mps 758 mmHg 71%
    01:00 +20°C° 0 mm 3 mps 757 mmHg 71%
    02:00 +20°C° 0 mm 3 mps 757 mmHg 70%
    03:00 +20°C° 0 mm 3 mps 757 mmHg 70%
    04:00 +19°C° 0 mm 3 mps 757 mmHg 71%
    05:00 +19°C° 0 mm 3 mps 757 mmHg 72%
    06:00 +18°C° 0 mm 3 mps 757 mmHg 73%
    07:00 +20°C° 0 mm 2 mps 757 mmHg 72%
    08:00 +21°C° 0 mm 2 mps 757 mmHg 70%
    09:00 +23°C° 0 mm 2 mps 758 mmHg 68%
    10:00 +25°C° 0 mm 2 mps 757 mmHg 62%
    11:00 +26°C° 0 mm 1 mps 757 mmHg 57%
    12:00 +28°C° 0 mm 1 mps 757 mmHg 52%
    13:00 +29°C° 0 mm 1 mps 756 mmHg 50%
    14:00 +29°C° 0 mm 1 mps 755 mmHg 48%
    15:00 +30°C° 0 mm 1 mps 754 mmHg 47%
    16:00 +29°C° 0 mm 2 mps 754 mmHg 54%
    17:00 +27°C° 0 mm 3 mps 754 mmHg 62%
    18:00 +26°C° 0 mm 4 mps 754 mmHg 69%
    19:00 +26°C° 0 mm 4 mps 754 mmHg 72%
    20:00 +25°C° 0 mm 4 mps 755 mmHg 74%
    21:00 +25°C° 0 mm 4 mps 755 mmHg 77%
    22:00 +25°C° 0 mm 4 mps 755 mmHg 79%
    23:00 +25°C° 0 mm 4 mps 755 mmHg 82%

    Tomorrow, 19 October, Saturday

    Time Temperature Precipitation Wind Pressure Humidity
    00:00 +25°C° 0 mm 4 mps 755 mmHg 85%
    01:00 +25°C° 0 mm 4 mps 755 mmHg 86%
    02:00 +25°C° 0 mm 4 mps 754 mmHg 88%
    03:00 +25°C° 0 mm 4 mps 754 mmHg 90%
    04:00 +25°C° 0 mm 3 mps 754 mmHg 90%
    05:00 +25°C° 0 mm 3 mps 754 mmHg 89%
    06:00 +25°C° 0 mm 2 mps 754 mmHg 89%
    07:00 +26°C° 0 mm 3 mps 755 mmHg 82%
    08:00 +28°C° 0 mm 3 mps 755 mmHg 76%
    09:00 +29°C° 0 mm 4 mps 756 mmHg 69%
    10:00 +32°C° 0 mm 4 mps 756 mmHg 64%
    11:00 +33°C° 0 mm 4 mps 755 mmHg 59%
    12:00 +34°C° 0 mm 4 mps 755 mmHg 54%
    13:00 +35°C° 0 mm 4 mps 755 mmHg 52%
    14:00 +35°C° 0 mm 4 mps 754 mmHg 50%
    15:00 +36°C° 0 mm 4 mps 753 mmHg 49%
    16:00 +34°C° 0 mm 4 mps 753 mmHg 57%
    17:00 +32°C° 0 mm 5 mps 753 mmHg 66%
    18:00 +30°C° 0 mm 5 mps 753 mmHg 75%
    19:00 +29°C° 0 mm 6 mps 754 mmHg 77%
    20:00 +29°C° 0 mm 6 mps 754 mmHg 80%
    21:00 +29°C° 0 mm 6 mps 755 mmHg 82%
    22:00 +29°C° 0.5 mm 6 mps 755 mmHg 82%
    23:00 +28°C° 0.5 mm 6 mps 755 mmHg 83%

    Day after tomorrow, 20 October, Sunday

    Time Temperature Precipitation Wind Pressure Humidity
    00:00 +28°C° 0.5 mm 6 mps 755 mmHg 83%
    01:00 +28°C° 0.3 mm 6 mps 754 mmHg 84%
    02:00 +28°C° 0.3 mm 6 mps 754 mmHg 85%
    03:00 +27°C° 0.3 mm 6 mps 754 mmHg 86%
    04:00 +27°C° 0.1 mm 5 mps 754 mmHg 87%
    05:00 +27°C° 0.1 mm 5 mps 754 mmHg 88%
    06:00 +27°C° 0.1 mm 5 mps 754 mmHg 88%
    07:00 +28°C° 0 mm 6 mps 755 mmHg 83%
    08:00 +29°C° 0 mm 6 mps 755 mmHg 78%
    09:00 +30°C° 0 mm 6 mps 756 mmHg 73%
    10:00 +32°C° 0 mm 6 mps 755 mmHg 69%
    11:00 +33°C° 0 mm 6 mps 755 mmHg 65%
    12:00 +34°C° 0 mm 6 mps 755 mmHg 60%
    13:00 +34°C° 0 mm 7 mps 754 mmHg 61%
    14:00 +34°C° 0 mm 7 mps 754 mmHg 61%
    15:00 +34°C° 0 mm 8 mps 753 mmHg 62%
    16:00 +33°C° 0 mm 8 mps 753 mmHg 67%
    17:00 +32°C° 0 mm 8 mps 753 mmHg 73%
    18:00 +29°C° 0 mm 8 mps 753 mmHg 78%
    19:00 +29°C° 0 mm 8 mps 753 mmHg 79%
    20:00 +29°C° 0 mm 8 mps 754 mmHg 81%
    21:00 +28°C° 0 mm 7 mps 754 mmHg 82%
    22:00 +28°C° 0 mm 7 mps 754 mmHg 82%
    23:00 +28°C° 0 mm 7 mps 754 mmHg 82%

    21 October, Monday

    Time Temperature Precipitation Wind Pressure Humidity
    00:00 +28°C° 0 mm 7 mps 754 mmHg 82%
    01:00 +28°C° 0 mm 7 mps 754 mmHg 83%
    02:00 +28°C° 0 mm 6 mps 754 mmHg 84%
    03:00 +28°C° 0 mm 6 mps 754 mmHg 85%
    04:00 +28°C° 0 mm 5 mps 754 mmHg 85%
    05:00 +28°C° 0 mm 5 mps 754 mmHg 85%
    06:00 +28°C° 0 mm 4 mps 754 mmHg 85%
    07:00 +28°C° 0 mm 4 mps 755 mmHg 83%
    08:00 +29°C° 0 mm 4 mps 755 mmHg 82%
    09:00 +29°C° 0 mm 4 mps 756 mmHg 81%
    10:00 +30°C° 0.1 mm 3 mps 756 mmHg 77%
    11:00 +31°C° 0.1 mm 3 mps 756 mmHg 72%
    12:00 +33°C° 0.1 mm 3 mps 757 mmHg 68%
    13:00 +32°C° 1.4 mm 4 mps 756 mmHg 64%
    14:00 +32°C° 1.4 mm 6 mps 756 mmHg 59%
    15:00 +30°C° 1.4 mm 7 mps 756 mmHg 55%
    16:00 +28°C° 0.3 mm 8 mps 757 mmHg 53%
    17:00 +27°C° 0.3 mm 8 mps 757 mmHg 52%
    18:00 +24°C° 0.3 mm 8 mps 758 mmHg 50%
    19:00 +23°C° 0 mm 8 mps 759 mmHg 49%
    20:00 +22°C° 0 mm 8 mps 760 mmHg 48%
    21:00 +22°C° 0 mm 8 mps 760 mmHg 47%
    22:00 +21°C° 0 mm 7 mps 761 mmHg 47%
    23:00 +20°C° 0 mm 7 mps 762 mmHg 46%

    22 October, Tuesday

    Time Temperature Precipitation Wind Pressure Humidity
    00:00 +20°C° 0 mm 7 mps 762 mmHg 46%
    01:00 +18°C° 0 mm 7 mps 763 mmHg 46%
    02:00 +18°C° 0 mm 7 mps 763 mmHg 46%
    03:00 +17°C° 0 mm 7 mps 763 mmHg 46%
    04:00 +17°C° 0 mm 6 mps 763 mmHg 47%
    05:00 +17°C° 0 mm 6 mps 764 mmHg 47%
    06:00 +16°C° 0 mm 5 mps 764 mmHg 47%
    07:00 +17°C° 0 mm 5 mps 764 mmHg 44%
    08:00 +19°C° 0 mm 5 mps 765 mmHg 41%
    09:00 +20°C° 0 mm 5 mps 765 mmHg 38%
    10:00 +22°C° 0 mm 5 mps 765 mmHg 35%
    11:00 +23°C° 0 mm 5 mps 765 mmHg 31%
    12:00 +26°C° 0 mm 5 mps 765 mmHg 28%
    13:00 +26°C° 0 mm 5 mps 765 mmHg 28%
    14:00 +26°C° 0 mm 5 mps 764 mmHg 29%
    15:00 +27°C° 0 mm 5 mps 763 mmHg 30%
    16:00 +26°C° 0 mm 4 mps 763 mmHg 35%
    17:00 +25°C° 0 mm 4 mps 763 mmHg 40%
    18:00 +24°C° 0 mm 3 mps 763 mmHg 45%
    19:00 +22°C° 0 mm 4 mps 764 mmHg 47%
    20:00 +22°C° 0 mm 4 mps 764 mmHg 49%
    21:00 +22°C° 0 mm 4 mps 764 mmHg 51%
    22:00 +22°C° 0 mm 3 mps 763 mmHg 53%
    23:00 +22°C° 0 mm 3 mps 763 mmHg 55%

    23 October, Wednesday

    Time Temperature Precipitation Wind Pressure Humidity
    00:00 +22°C° 0 mm 3 mps 763 mmHg 57%
    01:00 +22°C° 0 mm 3 mps 763 mmHg 59%
    02:00 +22°C° 0 mm 3 mps 762 mmHg 61%
    03:00 +22°C° 0 mm 3 mps 762 mmHg 62%
    04:00 +22°C° 0 mm 3 mps 762 mmHg 64%
    05:00 +22°C° 0 mm 3 mps 762 mmHg 66%
    06:00 +22°C° 0 mm 3 mps 762 mmHg 68%
    07:00 +23°C° 0 mm 4 mps 762 mmHg 65%
    08:00 +26°C° 0 mm 5 mps 762 mmHg 61%
    09:00 +27°C° 0 mm 5 mps 762 mmHg 58%
    10:00 +28°C° 0 mm 5 mps 762 mmHg 57%
    11:00 +29°C° 0 mm 6 mps 761 mmHg 55%
    12:00 +30°C° 0 mm 6 mps 761 mmHg 53%
    13:00 +30°C° 0 mm 6 mps 760 mmHg 55%
    14:00 +29°C° 0 mm 6 mps 760 mmHg 56%
    15:00 +29°C° 0 mm 6 mps 759 mmHg 57%
    16:00 +29°C° 0 mm 6 mps 759 mmHg 62%
    17:00 +28°C° 0 mm 5 mps 758 mmHg 67%
    18:00 +27°C° 0 mm 5 mps 758 mmHg 71%
    19:00 +27°C° 0 mm 5 mps 758 mmHg 74%
    20:00 +27°C° 0 mm 5 mps 758 mmHg 77%
    21:00 +27°C° 0 mm 5 mps 758 mmHg 79%
    22:00 +27°C° 0 mm 5 mps 758 mmHg 80%
    23:00 +28°C° 0 mm 5 mps 758 mmHg 81%
    Show more